Regional Weather Roundup
Issued by NWS

Home | Current Version | Previous Version | Text Only | Print | Product List | Glossary Off
Versions: 1 2 3 4 5 6 7 8 9 10 11 12 13 14 15 16 17 18 19 20 21 22 23 24 25 26 27 28 29 30 31 32 33 34 35 36 37 38 39 40 41 42 43 44 45 46 47 48 49 50

000
ASUS43 KMKX 281400
RWRWI

WISCONSIN REGIONAL WEATHER ROUNDUP
NATIONAL WEATHER SERVICE MILWAUKEE/SULLIVAN WI
900 AM CDT TUE JUL 28 2015

NOTE: "FAIR" INDICATES FEW OR NO CLOUDS BELOW 12,000 FEET WITH NO
SIGNIFICANT WEATHER AND/OR OBSTRUCTIONS TO VISIBILITY.

WIZ001-002-006>008-014>016-023>028-281500-
NORTHWEST WISCONSIN

CITY           SKY/WX    TMP DP  RH WIND       PRES   REMARKS
SUPERIOR ARPT  DRIZZLE   72  69  92 CALM      29.83F
ASHLAND        CLOUDY    72  67  84 S6        29.88F
HAYWARD        CLOUDY    71  65  81 S10       29.91S
SIREN          RAIN      72  70  94 SE10      29.86F
CUMBERLAND     TSTM      70  68  94 S9        29.93R
RICE LAKE      TSTM      70  66  89 SE7       29.95R
CHETEK         RAIN      69  67  94 CALM      29.95R
LADYSMITH      CLOUDY    71  64  79 S6        29.96S
EAU CLAIRE     CLOUDY    73  65  75 S10       29.96R
MENOMONIE      RAIN      71  69  93 CALM      29.95R
NEW RICHMOND   RAIN      70  69  96 SE12      29.87F
OSCEOLA        RAIN      71  71 100 E17       29.84F
$$

WIZ003>005-009-010-017-018-281500-
NORTH CENTRAL WISCONSIN

CITY           SKY/WX    TMP DP  RH WIND       PRES   REMARKS
MANITOWISH WTR CLOUDY    70  64  80 S12       29.97F
ARBOR VITAE    CLOUDY    72  63  73 S9        29.99S
WOODRUFF       CLOUDY    72  63  73 S9        29.99S
RHINELANDER    PTSUNNY   73  61  65 S8        30.01S
EAGLE RIVER    CLOUDY    70  59  68 S6        30.01S
LAND O LAKES   CLOUDY    72  60  66 S10G17    30.01S
PHILLIPS       CLOUDY    71  63  77 S9        29.96S
TOMAHAWK       PTSUNNY   71  62  74 S3        30.00S
MEDFORD        CLOUDY    69  64  82 SE9       29.98R
MERRILL        NOT AVBL
$$

WIZ029-030-035-036-043>047-281500-
CENTRAL WISCONSIN

CITY           SKY/WX    TMP DP  RH WIND       PRES   REMARKS
WAUSAU         MOSUNNY   74  62  66 S9        29.99R
MOSINEE        SUNNY     73  64  73 S10       30.01R
MARSHFIELD     CLOUDY    74  62  66 S9        29.98R
STEVENS POINT  MOSUNNY   74  62  65 S5        29.99S
WAUPACA        SUNNY     76  64  66 SE6       30.00S
WAUTOMA        NOT AVBL
WISC RAPIDS    PTSUNNY   77  62  59 S8        30.00R
CAMP DOUGLAS   NOT AVBL
$$

WIZ011>013-019>022-031-037>040-048>050-281500-
NORTHEAST WISCONSIN

CITY           SKY/WX    TMP DP  RH WIND       PRES   REMARKS
ANTIGO         MOSUNNY   70  63  77 S8        30.03S
SHAWANO        MOSUNNY   76  63  64 S6        30.00F
OCONTO         SUNNY     76  64  67 S7        30.00R
STURGEON BAY   SUNNY     79  63  57 S9        30.04R HX  80
GREEN BAY      SUNNY     78  67  68 S5        30.01R HX  80
MANITOWOC      NOT AVBL
APPLETON       MOSUNNY   79  63  57 S9        30.01R HX  80
CLINTONVILLE   SUNNY     72  64  78 CALM      30.01R
OSHKOSH        SUNNY     78  65  63 S9        29.99S HX  80
$$

WIZ032>034-041-042-053>061-281500-
SOUTHWEST WISCONSIN

CITY           SKY/WX    TMP DP  RH WIND       PRES   REMARKS
LA CROSSE      RAIN      72  68  87 S16       29.95R FOG
SPARTA         CLOUDY    73  63  70 S6        29.96R
VIROQUA        CLOUDY    71  66  85 S7        29.98R
BOSCOBEL       CLOUDY    76  67  73 SW3       29.97R
PRAIRIE DU CHI CLOUDY    73  66  78 CALM      29.96R
PLATTEVILLE    CLOUDY    74  68  80 S7        29.98R
$$

WIZ056-057-062-063-064-067-068-281500-
SOUTH CENTRAL WISCONSIN

CITY           SKY/WX    TMP DP  RH WIND       PRES   REMARKS
REEDSBURG      PTSUNNY   74  65  72 S7        29.97S
BARABOO/DELLS  PTSUNNY   74  61  63 SE6       29.98R
LONE ROCK      NOT AVBL
MINERAL POINT  PTSUNNY   75  64  69 SE8       29.99R
MADISON        PTSUNNY   78  64  61 S10       29.97F HX  80
MIDDLETON      MOSUNNY   77  63  63 SE7       29.98S
WATERTOWN      SUNNY     76  70  83 SE7       29.99F
MONROE         MOSUNNY   73  64  73 SE9       29.98S
JANESVILLE     SUNNY     81  64  57 SE8       29.97F HX  82
$$

WIZ051-052-058>065-066-070>072-281500-
SOUTHEAST WISCONSIN

CITY           SKY/WX    TMP DP  RH WIND       PRES   REMARKS
MILWAUKEE      MOSUNNY   80  66  62 SE6       29.99F HX  82
WAUKESHA       SUNNY     77  61  57 MISG      30.01S
MILWAUKEE/TIMM SUNNY     79  63  57 S7        30.00F HX  80
RACINE         SUNNY     78  66  66 S9        30.01F HX  80
BURLINGTON     SUNNY     74  65  73 SE6       29.99S
KENOSHA        SUNNY     80  68  66 SE8       30.00F HX  83
FOND DU LAC    SUNNY     79  65  62 S12       30.00S HX  81
SHEBOYGAN      SUNNY     77  68  73 S7        30.01R
WEST BEND      SUNNY     73  64  73 CALM      30.01S
JUNEAU           N/A     74  65  74 SE9       30.01S
$$

LSZ147-162-281500-
LAKE SUPERIOR

STATION/POSITION TIME  TEMP    WIND        PRES    WAVE
                       AIR SEA DIR/SP/G            HT/PER
                 (UTC) (F)     (DEG/KT/KT) (MB)    (FT/S)
W MID LAKE BUOY  1250   65 61  140/ 12/ 12 1011.9F   1
DEVILS ISLAND    1300   72     150/ 10/ 14 1011.2F
PORT WING        1240   74     150/  6/ 13 1010.8F
SAXON HARBOR     1300   74                 1012.2
$$

LMZ867-665-643>646-281500-
LAKE MICHIGAN

STATION/POSITION TIME  TEMP    WIND        PRES    WAVE
                       AIR SEA DIR/SP/G            HT/PER
                 (UTC) (F)     (DEG/KT/KT) (MB)    (FT/S)
CHAMBERS ISLAND  1300   77     160/  4/  7 1015.9S
S GREEN BAY BUOY 1300   76 75  160/ 10/ 12 1017.1
N MID LAKE BUOY  1250   70 69  210/  2/  2 1016.3R   0
NORTHPORT PIER   1300   73     140/  8/ 10 1015.9F
ALGOMA LAKESHORE 1312             CALM       N/A
KEWAUNEE LAKESHO 1300   71     120/  2/  2 1015.5F
SHEBOYGAN LAKESH 1300   71     140/  7/  7 1015.9F
PORT WASHINGTON  1300   74     150/  3/  4 1016.6S
ATWATER BUOY     1300   72     170/  4/  6 1017.4R
MILWAUKEE LAKESH 1300   72     150/  8/  9   N/A
KENOSHA   LAKESH 1300   74     150/  6/  6 1015.9S
$$

TC  - TEMPERATURE IN CELSIUS
VSB - VISIBILITY IN STATUTE MILES
WCI - WIND CHILL INDEX
HX  - HEAT INDEX



USA.gov is the U.S. government's official web portal to all federal, state and local government web resources and services.